Date,TemperatureHighF,TemperatureAvgF,TemperatureLowF,DewpointHighF,DewpointAvgF,DewpointLowF,HumidityHigh,HumidityAvg,HumidityLow,PressureMaxIn,PressureMinIn,WindSpeedMaxMPH,WindSpeedAvgMPH,GustSpeedMaxMPH,PrecipitationSumIn
2013-1-1,34.0,31.5,31.0,-99.9,-99.9,-99.9,0,0,100,30.50,30.37,6,-74,9,0.00
2013-1-2,44.0,24.7,28.0,-99.9,-99.9,-99.9,0,0,100,30.37,30.22,14,-11,19,0.00
2013-1-3,42.0,27.2,29.0,-99.9,-99.9,-99.9,0,0,100,30.22,30.14,23,8,30,0.00
2013-1-4,43.0,39.4,37.0,-99.9,-99.9,-99.9,0,0,100,30.36,30.19,23,-16,31,0.00
2013-1-5,41.0,38.0,36.0,-99.9,-99.9,-99.9,0,0,100,30.23,30.16,9,-16,13,0.00
2013-1-6,44.0,39.6,36.0,-99.9,-99.9,-99.9,0,0,100,30.25,30.03,17,7,24,0.00
2013-1-7,51.0,46.4,44.0,-99.9,-99.9,-99.9,0,0,100,30.22,29.95,19,-5,25,0.00
2013-1-8,52.0,48.5,43.0,-99.9,-99.9,-99.9,0,0,100,30.21,29.86,19,-17,27,0.00
2013-1-9,52.0,41.9,35.0,-99.9,-99.9,-99.9,0,0,100,30.00,29.67,21,-329,30,0.00
2013-1-10,40.0,36.5,33.0,-99.9,-99.9,-99.9,0,0,100,30.12,29.99,6,-216,8,0.00
2013-1-11,40.0,24.6,30.0,-99.9,-99.9,-99.9,0,0,100,30.33,30.12,6,-40,9,0.00
2013-1-12,37.0,17.3,28.0,-99.9,-99.9,-99.9,0,0,100,30.44,30.32,6,-27,9,0.00
2013-1-13,35.0,15.1,25.0,-99.9,-99.9,-99.9,0,0,100,30.50,30.43,8,-18,10,0.00
2013-1-14,34.0,21.8,28.0,-99.9,-99.9,-99.9,0,0,100,30.58,30.51,10,-4,15,0.00
2013-1-15,37.0,34.7,33.0,-99.9,-99.9,-99.9,0,0,100,30.70,30.58,7,-46,11,0.00
2013-1-16,35.0,28.9,32.0,-99.9,-99.9,-99.9,0,0,100,30.68,30.52,7,-68,10,0.00
2013-1-17,36.0,22.3,30.0,-99.9,-99.9,-99.9,0,0,100,30.53,30.33,7,-17,11,0.00
2013-1-18,44.0,27.7,29.0,-99.9,-99.9,-99.9,0,0,100,30.33,30.26,5,-97,6,0.00
2013-1-19,43.0,24.4,30.0,-99.9,-99.9,-99.9,0,0,100,30.37,30.30,4,-46,6,0.00
2013-1-20,39.0,14.3,29.0,-99.9,-99.9,-99.9,0,0,100,30.39,30.27,8,2,9,0.00
2013-1-21,42.0,24.2,28.0,-99.9,-99.9,-99.9,0,0,100,30.30,30.15,10,-2,15,0.00
2013-1-22,39.0,26.2,30.0,-99.9,-99.9,-99.9,0,0,100,30.17,29.95,11,-10,15,0.00
2013-1-23,37.0,35.8,34.0,-99.9,-99.9,-99.9,0,0,100,30.21,29.91,12,6,21,0.00
2013-1-24,43.0,38.9,35.0,-99.9,-99.9,-99.9,0,0,100,30.24,30.10,15,-15,23,0.00
2013-1-25,48.0,44.2,41.0,-99.9,-99.9,-99.9,0,0,100,30.12,29.96,11,-108,15,0.00
2013-1-26,44.0,42.2,40.0,-99.9,-99.9,-99.9,0,0,100,30.09,29.93,15,0,21,0.00
2013-1-27,41.0,40.0,38.0,-99.9,-99.9,-99.9,0,0,100,30.14,30.05,10,-94,14,0.00
2013-1-28,44.0,42.0,39.0,-99.9,-99.9,-99.9,0,0,100,30.19,30.08,14,-51,20,0.00
2013-1-29,47.0,45.2,44.0,-99.9,-99.9,-99.9,0,0,100,30.46,30.19,12,-22,16,0.00
2013-1-30,49.0,45.8,44.0,-99.9,-99.9,-99.9,0,0,100,30.45,30.41,13,-18,21,0.00
2013-1-31,48.0,45.1,41.0,-99.9,-99.9,-99.9,0,0,100,30.43,30.34,8,-228,12,0.00
2013-2-1,52.0,46.1,43.0,-99.9,-99.9,-99.9,0,0,100,30.40,30.31,9,-81,12,0.00
2013-2-2,52.0,43.6,39.0,-99.9,-99.9,-99.9,0,0,100,30.35,30.25,6,-179,8,0.00
2013-2-3,45.0,42.3,39.0,-99.9,-99.9,-99.9,0,0,100,30.35,30.24,9,-31,12,0.00
2013-2-4,52.0,45.9,43.0,-99.9,-99.9,-99.9,0,0,100,30.25,29.94,8,-46,14,0.00
2013-2-5,52.0,46.4,44.0,-99.9,-99.9,-99.9,0,0,100,30.03,29.90,17,-131,27,0.00
2013-2-6,49.0,45.7,43.0,-99.9,-99.9,-99.9,0,0,100,30.09,29.81,16,-244,21,0.00
2013-2-7,48.0,42.0,36.0,-99.9,-99.9,-99.9,0,0,100,30.19,29.87,11,-732,15,0.00
2013-2-8,47.0,39.1,33.0,-99.9,-99.9,-99.9,0,0,100,30.31,30.19,5,-916,7,0.00
2013-2-9,46.0,41.2,36.0,-99.9,-99.9,-99.9,0,0,100,30.32,30.26,6,-519,8,0.00
2013-2-10,46.0,41.4,35.0,-99.9,-99.9,-99.9,0,0,100,30.38,30.31,6,-60,10,0.00
2013-2-11,46.0,43.1,41.0,-99.9,-99.9,-99.9,0,0,100,30.39,30.33,10,-94,13,0.00
2013-2-12,49.0,46.1,43.0,-99.9,-99.9,-99.9,0,0,100,30.47,30.39,8,-298,11,0.00
2013-2-13,50.0,45.9,40.0,-99.9,-99.9,-99.9,0,0,100,30.53,30.41,0,-999,0,0.00
2013-2-14,46.0,41.9,38.0,-99.9,-99.9,-99.9,0,0,100,30.58,30.52,0,-999,0,0.00
2013-2-15,60.0,48.3,43.0,-99.9,-99.9,-99.9,0,0,100,30.54,30.21,0,-999,0,0.00
2013-2-16,50.0,44.4,41.0,-99.9,-99.9,-99.9,0,0,100,30.29,30.21,0,-999,0,0.00
2013-2-17,46.0,41.1,37.0,-99.9,-99.9,-99.9,0,0,100,30.30,30.13,0,-999,0,0.00
2013-2-18,45.0,40.9,37.0,-99.9,-99.9,-99.9,0,0,100,30.12,29.75,0,-999,0,0.00
2013-2-19,51.0,43.6,38.0,-99.9,-99.9,-99.9,0,0,100,30.02,29.72,0,-999,0,0.00
2013-2-20,44.0,40.0,35.0,-99.9,-99.9,-99.9,0,0,100,30.09,30.00,0,-999,0,0.00
2013-2-21,45.0,42.6,40.0,-99.9,-99.9,-99.9,0,0,100,30.16,30.06,0,-999,0,0.00
2013-2-22,48.0,43.0,38.0,-99.9,-99.9,-99.9,0,0,100,30.15,29.85,0,-999,0,0.00
2013-2-23,47.0,41.5,38.0,-99.9,-99.9,-99.9,0,0,100,30.44,30.04,0,-999,0,0.00
2013-2-24,48.0,43.1,39.0,-99.9,-99.9,-99.9,0,0,100,30.44,30.01,0,-999,0,0.00
2013-2-25,47.0,42.3,39.0,-99.9,-99.9,-99.9,0,0,100,30.37,29.99,0,-999,0,0.00
2013-2-26,46.0,41.8,37.0,-99.9,-99.9,-99.9,0,0,100,30.40,30.24,19,-300,24,0.00
2013-2-27,49.0,46.6,44.0,-99.9,-99.9,-99.9,0,0,100,30.31,30.24,17,-6,26,0.00
2013-2-28,54.0,50.1,46.0,-99.9,-99.9,-99.9,0,0,100,30.40,30.18,15,-28,20,0.00
2013-3-1,57.0,53.5,50.0,-99.9,-99.9,-99.9,0,0,100,30.44,30.32,18,0,23,0.00
2013-3-2,54.0,46.8,42.0,-99.9,-99.9,-99.9,0,0,100,30.33,30.15,15,-87,20,0.00
2013-3-3,49.0,42.2,36.0,-99.9,-99.9,-99.9,0,0,100,30.32,30.28,11,-80,17,0.00
2013-3-4,57.0,42.5,33.0,-99.9,-99.9,-99.9,0,0,100,30.29,29.92,13,-59,17,0.00
2013-3-5,46.0,41.2,35.0,-99.9,-99.9,-99.9,0,0,100,29.93,29.69,15,-37,21,0.00
2013-3-6,45.0,42.9,41.0,-99.9,-99.9,-99.9,0,0,100,29.95,29.57,14,-172,17,0.00
2013-3-7,55.0,46.0,40.0,-99.9,-99.9,-99.9,0,0,100,30.07,29.94,15,-63,19,0.00
2013-3-8,56.0,43.9,37.0,-99.9,-99.9,-99.9,0,0,100,30.24,30.07,8,-25,13,0.00
2013-3-9,55.0,42.6,34.0,-99.9,-99.9,-99.9,0,0,100,30.52,30.24,9,-46,10,0.00
2013-3-10,47.0,41.7,36.0,-99.9,-99.9,-99.9,0,0,100,30.52,30.43,6,-158,9,0.00
2013-3-11,52.0,47.5,44.0,-99.9,-99.9,-99.9,0,0,100,30.45,30.24,11,-67,13,0.00
2013-3-12,58.0,52.8,49.0,-99.9,-99.9,-99.9,0,0,100,30.24,30.15,13,-16,17,0.00
2013-3-13,59.0,52.8,49.0,-99.9,-99.9,-99.9,0,0,100,30.23,30.10,12,-9,16,0.00
2013-3-14,55.0,50.3,47.0,-99.9,-99.9,-99.9,0,0,100,30.20,30.06,12,-38,17,0.00
2013-3-15,59.0,52.5,47.0,-99.9,-99.9,-99.9,0,0,100,30.23,30.19,12,-2,13,0.00
2013-3-16,50.0,46.4,40.0,-99.9,-99.9,-99.9,0,0,100,30.19,30.02,18,-43,28,0.00
2013-3-17,46.0,41.2,38.0,-99.9,-99.9,-99.9,0,0,100,30.30,30.12,13,-613,17,0.00
2013-3-18,52.0,43.4,39.0,-99.9,-99.9,-99.9,0,0,100,30.28,30.21,3,-964,6,0.00
2013-3-19,50.0,42.2,37.0,-99.9,-99.9,-99.9,0,0,100,30.21,29.65,0,-999,0,0.00
2013-3-20,52.0,46.6,39.0,-99.9,-99.9,-99.9,0,0,100,30.15,29.48,19,-748,29,0.00
2013-3-21,44.0,39.3,36.0,-99.9,-99.9,-99.9,0,0,100,30.31,30.14,14,-957,19,0.00
2013-3-22,45.0,39.2,36.0,-99.9,-99.9,-99.9,0,0,100,30.41,30.30,0,-999,0,0.00
2013-3-23,49.0,39.8,34.0,-99.9,-99.9,-99.9,0,0,100,30.42,30.30,0,-999,0,0.00
2013-3-24,55.0,43.6,35.0,-99.9,-99.9,-99.9,0,0,100,30.31,30.11,0,-999,0,0.00
2013-3-25,62.0,48.3,38.0,-99.9,-99.9,-99.9,0,0,100,30.12,29.91,0,-999,0,0.00
2013-3-26,55.0,49.3,45.0,-99.9,-99.9,-99.9,0,0,100,30.03,29.98,9,-591,12,0.00
2013-3-27,62.0,51.8,46.0,-99.9,-99.9,-99.9,0,0,100,30.01,29.91,11,-101,12,0.00
2013-3-28,61.0,52.9,48.0,-99.9,-99.9,-99.9,0,0,100,30.15,30.01,10,-80,12,0.00
2013-3-29,66.0,55.3,48.0,-99.9,-99.9,-99.9,0,0,100,30.23,30.14,8,-45,9,0.00
2013-3-30,73.0,58.6,47.0,-99.9,-99.9,-99.9,0,0,100,30.23,30.02,11,-18,16,0.00
2013-3-31,76.0,57.6,48.0,-99.9,-99.9,-99.9,0,0,100,30.03,29.89,12,-39,15,0.00
2013-4-1,64.0,53.4,49.0,-99.9,-99.9,-99.9,0,0,100,30.19,30.02,12,-72,15,0.00
2013-4-2,56.0,52.1,49.0,-99.9,-99.9,-99.9,0,0,100,30.22,30.17,9,-10,11,0.00
2013-4-3,64.0,54.3,49.0,-99.9,-99.9,-99.9,0,0,100,30.20,29.93,6,-53,7,0.00
2013-4-4,59.0,54.7,51.0,-99.9,-99.9,-99.9,0,0,100,29.93,29.67,16,-107,21,0.00
2013-4-5,58.0,53.7,51.0,-99.9,-99.9,-99.9,0,0,100,29.92,29.78,18,9,28,0.00
2013-4-6,56.0,50.8,45.0,-99.9,-99.9,-99.9,0,0,100,29.98,29.72,18,9,24,0.00
2013-4-7,51.0,46.7,44.0,-99.9,-99.9,-99.9,0,0,100,29.95,29.49,21,9,30,0.00
2013-4-8,53.0,47.1,44.0,-99.9,-99.9,-99.9,0,0,100,30.31,29.96,13,5,16,0.00
2013-4-9,54.0,47.6,40.0,-99.9,-99.9,-99.9,0,0,100,30.37,30.24,10,-38,13,0.00
2013-4-10,54.0,51.7,48.0,-99.9,-99.9,-99.9,0,0,100,30.35,30.07,18,10,27,0.00
2013-4-11,55.0,48.5,44.0,-99.9,-99.9,-99.9,0,0,100,30.37,30.22,13,-1,17,0.00
2013-4-12,50.0,43.6,36.0,-99.9,-99.9,-99.9,0,0,100,30.22,29.82,12,-11,18,0.00
2013-4-13,47.0,43.4,39.0,-99.9,-99.9,-99.9,0,0,100,30.08,29.91,19,-8,25,0.00
2013-4-14,51.0,44.0,41.0,-99.9,-99.9,-99.9,0,0,100,30.08,29.96,9,4,13,0.00
2013-4-15,55.0,45.1,37.0,-99.9,-99.9,-99.9,0,0,100,30.22,29.97,15,4,22,0.00
2013-4-16,59.0,46.9,38.0,-99.9,-99.9,-99.9,0,0,100,30.42,30.19,14,-9,20,0.00
2013-4-17,58.0,47.1,38.0,-99.9,-99.9,-99.9,0,0,100,30.50,30.42,14,6,18,0.00
2013-4-18,54.0,48.8,45.0,-99.9,-99.9,-99.9,0,0,100,30.50,30.31,10,-2,14,0.00
2013-4-19,54.0,51.0,49.0,-99.9,-99.9,-99.9,0,0,100,30.31,30.13,15,-15,21,0.00
2013-4-20,56.0,50.0,46.0,-99.9,-99.9,-99.9,0,0,100,30.35,30.29,12,-1,17,0.00
2013-4-21,55.0,49.0,46.0,-99.9,-99.9,-99.9,0,0,100,30.35,30.26,14,-30,18,0.00
2013-4-22,64.0,52.0,41.0,-99.9,-99.9,-99.9,0,0,100,30.48,30.35,11,-10,16,0.00
2013-4-23,66.0,52.8,38.0,-99.9,-99.9,-99.9,0,0,100,30.42,30.19,14,-17,21,0.00
2013-4-24,73.0,58.0,44.0,-99.9,-99.9,-99.9,0,0,100,30.31,30.05,12,-31,16,0.00
2013-4-25,70.0,55.9,44.0,-99.9,-99.9,-99.9,0,0,100,30.20,30.05,12,-30,15,0.00
2013-4-26,75.0,56.8,47.0,-99.9,-99.9,-99.9,0,0,100,30.28,30.19,8,-3,11,0.00
2013-4-27,60.0,51.8,45.0,-99.9,-99.9,-99.9,0,0,100,30.29,30.24,11,-52,15,0.00
2013-4-28,59.0,53.7,50.0,-99.9,-99.9,-99.9,0,0,100,30.27,30.07,13,-29,16,0.00
2013-4-29,53.0,49.3,44.0,-99.9,-99.9,-99.9,0,0,100,30.24,30.06,19,8,26,0.00
2013-4-30,56.0,46.9,41.0,-99.9,-99.9,-99.9,0,0,100,30.48,30.24,16,6,21,0.00
2013-5-1,68.0,51.1,35.0,-99.9,-99.9,-99.9,0,0,100,30.56,30.48,9,-17,13,0.00
2013-5-2,78.0,60.4,47.0,-99.9,-99.9,-99.9,0,0,100,30.51,30.29,14,-3,19,0.00
2013-5-3,76.0,63.7,50.0,-99.9,-99.9,-99.9,0,0,100,30.35,30.18,14,-8,23,0.00
2013-5-4,82.0,68.0,55.0,-99.9,-99.9,-99.9,0,0,100,30.18,29.93,16,-2,24,0.00
2013-5-5,86.0,68.7,54.0,-99.9,-99.9,-99.9,0,0,100,29.96,29.71,7,-39,12,0.00
2013-5-6,75.0,61.2,52.0,-99.9,-99.9,-99.9,0,0,100,29.90,29.79,11,-2,14,0.00
2013-5-7,66.0,57.3,53.0,-99.9,-99.9,-99.9,0,0,100,30.06,29.90,13,6,15,0.00
2013-5-8,67.0,56.8,53.0,-99.9,-99.9,-99.9,0,0,100,30.18,30.05,10,-2,13,0.00
2013-5-9,74.0,58.9,51.0,-99.9,-99.9,-99.9,0,0,100,30.22,30.10,9,5,12,0.00
2013-5-10,74.0,58.8,50.0,-99.9,-99.9,-99.9,0,0,100,30.22,30.12,10,5,13,0.00
2013-5-11,77.0,62.1,53.0,-99.9,-99.9,-99.9,0,0,100,30.24,30.03,11,-2,14,0.00
2013-5-12,69.0,62.5,58.0,-99.9,-99.9,-99.9,0,0,100,30.12,30.06,10,-53,13,0.00
2013-5-13,65.0,57.7,49.0,-99.9,-99.9,-99.9,0,0,100,30.24,30.01,23,-32,30,0.00
2013-5-14,65.0,54.2,45.0,-99.9,-99.9,-99.9,0,0,100,30.25,30.12,10,4,13,0.00
2013-5-15,57.0,53.2,48.0,-99.9,-99.9,-99.9,0,0,100,30.15,30.03,11,-3,15,0.00
2013-5-16,65.0,53.7,53.0,-99.9,-99.9,-99.9,0,0,100,30.03,29.91,16,-10,19,0.00
2013-5-17,60.0,54.0,49.0,-99.9,-99.9,-99.9,0,0,100,30.11,29.99,12,-37,16,0.00
2013-5-18,58.0,54.2,51.0,-99.9,-99.9,-99.9,0,0,100,30.29,30.11,11,-17,15,0.00
2013-5-19,62.0,55.9,51.0,-99.9,-99.9,-99.9,0,0,100,30.42,30.29,12,7,16,0.00
2013-5-20,68.0,55.8,49.0,-99.9,-99.9,-99.9,0,0,100,30.39,29.95,11,5,15,0.00
2013-5-21,53.0,49.3,46.0,-99.9,-99.9,-99.9,0,0,100,29.96,29.85,15,-29,25,0.00
2013-5-22,49.0,46.4,44.0,-99.9,-99.9,-99.9,0,0,100,29.97,29.92,14,8,18,0.00
2013-5-23,52.0,48.9,46.0,-99.9,-99.9,-99.9,0,0,100,30.01,29.95,14,8,20,0.00
2013-5-24,55.0,51.6,49.0,-99.9,-99.9,-99.9,0,0,100,30.10,29.97,14,6,21,0.00
2013-5-25,62.0,53.2,47.0,-99.9,-99.9,-99.9,0,0,100,30.09,29.96,12,5,16,0.00
2013-5-26,62.0,56.0,52.0,-99.9,-99.9,-99.9,0,0,100,30.02,29.96,13,-58,16,0.00
2013-5-27,62.0,55.7,53.0,-99.9,-99.9,-99.9,0,0,100,29.99,29.72,19,-25,27,0.00
2013-5-28,61.0,55.5,53.0,-99.9,-99.9,-99.9,0,0,100,29.93,29.78,14,-1,20,0.00
2013-5-29,58.0,53.9,51.0,-99.9,-99.9,-99.9,0,0,100,30.06,29.65,17,-23,21,0.00
2013-5-30,58.0,53.5,50.0,-99.9,-99.9,-99.9,0,0,100,30.27,30.06,13,-2,16,0.00
2013-5-31,65.0,56.9,49.0,-99.9,-99.9,-99.9,0,0,100,30.35,30.25,9,-3,11,0.00
2013-6-1,71.0,59.1,51.0,-99.9,-99.9,-99.9,0,0,100,30.27,30.05,11,-23,14,0.00
2013-6-2,66.0,59.1,54.0,-99.9,-99.9,-99.9,0,0,100,30.13,30.06,13,7,17,0.00
2013-6-3,70.0,58.2,51.0,-99.9,-99.9,-99.9,0,0,100,30.15,30.06,13,-1,16,0.00
2013-6-4,83.0,63.3,49.0,-99.9,-99.9,-99.9,0,0,100,30.13,30.00,10,5,16,0.00
2013-6-5,75.0,63.8,56.0,-99.9,-99.9,-99.9,0,0,100,30.11,30.02,13,7,16,0.00
2013-6-6,76.0,62.5,54.0,-99.9,-99.9,-99.9,0,0,100,30.09,30.01,14,7,18,0.00
2013-6-7,69.0,59.4,53.0,-99.9,-99.9,-99.9,0,0,100,30.20,30.09,13,6,17,0.00
2013-6-8,71.0,59.6,51.0,-99.9,-99.9,-99.9,0,0,100,30.21,30.10,12,7,17,0.00
2013-6-9,67.0,58.1,51.0,-99.9,-99.9,-99.9,0,0,100,30.14,30.04,17,8,22,0.00
2013-6-10,65.0,55.4,45.0,-99.9,-99.9,-99.9,0,0,100,30.07,29.94,15,0,22,0.00
2013-6-11,61.0,55.0,51.0,-99.9,-99.9,-99.9,0,0,100,30.16,30.01,12,-10,17,0.00
2013-6-12,58.0,55.3,52.0,-99.9,-99.9,-99.9,0,0,100,30.19,30.14,10,-18,13,0.00
2013-6-13,63.0,56.7,52.0,-99.9,-99.9,-99.9,0,0,100,30.29,30.17,10,-3,19,0.00
2013-6-14,66.0,58.7,54.0,-99.9,-99.9,-99.9,0,0,100,30.29,30.03,8,-32,11,0.00
2013-6-15,76.0,62.0,52.0,-99.9,-99.9,-99.9,0,0,100,30.04,29.91,13,4,16,0.00
2013-6-16,67.0,60.1,56.0,-99.9,-99.9,-99.9,0,0,100,30.12,30.04,9,5,12,0.00
2013-6-17,73.0,62.5,58.0,-99.9,-99.9,-99.9,0,0,100,30.12,29.95,18,-2,23,0.00
2013-6-18,65.0,58.3,53.0,-99.9,-99.9,-99.9,0,0,100,30.01,29.95,14,5,20,0.00
2013-6-19,64.0,57.9,53.0,-99.9,-99.9,-99.9,0,0,100,30.09,29.96,11,-32,15,0.00
2013-6-20,63.0,57.8,55.0,-99.9,-99.9,-99.9,0,0,100,30.09,30.04,8,4,13,0.00
2013-6-22,76.0,68.9,53.0,-99.9,-99.9,-99.9,0,0,100,30.09,29.87,11,-35,15,0.00
2013-6-23,67.0,62.8,60.0,-99.9,-99.9,-99.9,0,0,100,29.87,29.64,11,-23,14,0.00
2013-6-24,64.0,60.7,58.0,-99.9,-99.9,-99.9,0,0,100,29.72,29.61,14,-26,19,0.00
2013-6-25,66.0,62.4,59.0,-99.9,-99.9,-99.9,0,0,100,29.86,29.68,20,7,26,0.00
2013-6-26,70.0,63.9,60.0,-99.9,-99.9,-99.9,0,0,100,30.06,29.85,16,9,22,0.00
2013-6-27,73.0,65.4,61.0,-99.9,-99.9,-99.9,0,0,100,30.19,30.02,11,-80,16,0.00
2013-6-28,83.0,70.2,63.0,-99.9,-99.9,-99.9,0,0,100,30.17,30.05,15,-3,20,0.00
2013-6-29,85.0,71.2,63.0,-99.9,-99.9,-99.9,0,0,100,30.12,29.98,10,-4,13,0.00
2013-6-30,88.0,73.6,62.0,-99.9,-99.9,-99.9,0,0,100,30.01,29.85,11,5,15,0.00
2013-7-1,81.0,69.6,63.0,-99.9,-99.9,-99.9,0,0,100,30.06,29.94,13,7,17,0.00
2013-7-2,78.0,67.3,60.0,-99.9,-99.9,-99.9,0,0,100,30.12,30.05,13,8,17,0.00
2013-7-3,74.0,64.8,58.0,-99.9,-99.9,-99.9,0,0,100,30.17,30.07,16,9,20,0.00
2013-7-4,68.0,61.7,55.0,-99.9,-99.9,-99.9,0,0,100,30.15,30.08,17,8,23,0.00
2013-7-5,71.0,61.6,55.0,-99.9,-99.9,-99.9,0,0,100,30.08,29.98,12,-3,15,0.00
2013-7-6,74.0,61.4,56.0,-99.9,-99.9,-99.9,0,0,100,30.01,29.87,14,6,17,0.00
2013-7-7,70.0,61.7,58.0,-99.9,-99.9,-99.9,0,0,100,30.01,29.92,13,8,18,0.00
2013-7-8,75.0,61.8,58.0,-99.9,-99.9,-99.9,0,0,100,30.11,30.00,9,6,13,0.00
2013-7-9,81.0,66.7,58.0,-99.9,-99.9,-99.9,0,0,100,30.11,30.01,12,7,16,0.00
2013-7-10,71.0,59.9,56.0,-99.9,-99.9,-99.9,0,0,100,30.11,29.99,16,9,20,0.00
2013-7-11,69.0,59.9,51.0,-99.9,-99.9,-99.9,0,0,100,30.10,30.00,16,-3,21,0.00
2013-7-12,68.0,59.3,51.0,-99.9,-99.9,-99.9,0,0,100,30.13,30.03,15,6,20,0.00
2013-7-13,79.0,64.0,49.0,-99.9,-99.9,-99.9,0,0,100,30.20,30.08,14,6,17,0.00
2013-7-14,79.0,65.7,55.0,-99.9,-99.9,-99.9,0,0,100,30.13,29.99,13,7,18,0.00
2013-7-15,83.0,67.3,54.0,-99.9,-99.9,-99.9,0,0,100,30.05,29.85,14,6,21,0.00
2013-7-16,84.0,71.2,63.0,-99.9,-99.9,-99.9,0,0,100,29.98,29.79,12,4,17,0.00
2013-7-17,70.0,63.8,59.0,-99.9,-99.9,-99.9,0,0,100,30.20,29.97,10,6,13,0.00
2013-7-18,75.0,63.2,58.0,-99.9,-99.9,-99.9,0,0,100,30.24,30.11,12,6,16,0.00
2013-7-19,74.0,62.4,56.0,-99.9,-99.9,-99.9,0,0,100,30.18,30.04,15,8,18,0.00
2013-7-20,73.0,61.8,56.0,-99.9,-99.9,-99.9,0,0,100,30.11,29.98,13,8,17,0.00
2013-7-21,73.0,62.7,56.0,-99.9,-99.9,-99.9,0,0,100,30.01,29.93,13,8,17,0.00
2013-7-22,74.0,63.5,57.0,-99.9,-99.9,-99.9,0,0,100,30.07,29.98,11,7,15,0.00
2013-7-23,83.0,67.3,58.0,-99.9,-99.9,-99.9,0,0,100,30.07,29.95,11,7,15,0.00
2013-7-24,79.0,64.0,56.0,-99.9,-99.9,-99.9,0,0,100,30.09,29.99,13,7,15,0.00
2013-7-25,81.0,64.8,56.0,-99.9,-99.9,-99.9,0,0,100,30.13,30.05,13,8,17,0.00
2013-7-26,77.0,63.6,56.0,-99.9,-99.9,-99.9,0,0,100,30.18,30.09,13,7,18,0.00
2013-7-27,71.0,62.1,56.0,-99.9,-99.9,-99.9,0,0,100,30.20,30.05,14,7,20,0.00
2013-7-28,64.0,59.8,56.0,-99.9,-99.9,-99.9,0,0,100,30.07,30.01,12,6,17,0.00
2013-7-29,72.0,63.1,59.0,-99.9,-99.9,-99.9,0,0,100,30.02,29.96,12,6,16,0.00
2013-7-30,71.0,62.9,58.0,-99.9,-99.9,-99.9,0,0,100,30.17,30.05,9,6,13,0.00
2013-7-31,69.0,61.9,58.0,-99.9,-99.9,-99.9,0,0,100,30.15,30.02,13,6,18,0.00
2013-8-1,65.0,61.6,58.0,-99.9,-99.9,-99.9,0,0,100,30.11,30.07,8,-12,11,0.00
2013-8-2,67.0,62.4,58.0,-99.9,-99.9,-99.9,0,0,100,30.14,30.10,8,-8,10,0.00
2013-8-3,78.0,68.1,61.0,-99.9,-99.9,-99.9,0,0,100,30.13,30.02,12,5,18,0.00
2013-8-4,83.0,69.8,60.0,-99.9,-99.9,-99.9,0,0,100,30.05,29.92,11,5,14,0.00
2013-8-5,78.0,65.4,58.0,-99.9,-99.9,-99.9,0,0,100,30.04,29.93,9,6,13,0.00
2013-8-6,83.0,66.7,55.0,-99.9,-99.9,-99.9,0,0,100,30.04,29.92,9,6,12,0.00
2013-8-7,77.0,64.4,57.0,-99.9,-99.9,-99.9,0,0,100,30.06,29.97,12,7,15,0.00
2013-8-8,74.0,65.9,60.0,-99.9,-99.9,-99.9,0,0,100,30.07,29.94,13,-10,18,0.00
2013-8-9,71.0,63.2,58.0,-99.9,-99.9,-99.9,0,0,100,29.98,29.87,13,6,16,0.00
2013-8-10,71.0,63.9,60.0,-99.9,-99.9,-99.9,0,0,100,30.06,29.93,13,6,19,0.00
2013-8-11,69.0,63.2,60.0,-99.9,-99.9,-99.9,0,0,100,30.09,30.01,8,5,11,0.00
2013-8-31,83.0,63.9,61.0,-99.9,-99.9,-99.9,0,0,100,30.06,29.83,9,5,11,0.00
2013-9-1,71.0,67.3,62.0,-99.9,-99.9,-99.9,0,0,100,29.90,29.84,7,6,10,0.00
2013-9-2,74.0,68.4,63.0,-99.9,-99.9,-99.9,0,0,100,29.94,29.88,8,4,11,0.00
2013-9-3,72.0,66.6,62.0,-99.9,-99.9,-99.9,0,0,100,30.02,29.93,7,5,9,0.00
2013-9-4,71.0,66.1,62.0,-99.9,-99.9,-99.9,0,0,100,30.06,30.01,8,5,10,0.00
2013-9-5,69.0,66.4,63.0,-99.9,-99.9,-99.9,0,0,100,30.01,29.96,8,6,11,0.00
2013-9-6,69.0,63.9,61.0,-99.9,-99.9,-99.9,0,0,100,30.13,30.00,8,4,13,0.00
2013-11-27,51.0,44.7,40.0,-99.9,-99.9,-99.9,0,0,100,30.08,29.97,2,1,3,0.00
2013-11-28,50.0,40.8,34.0,-99.9,-99.9,-99.9,0,0,100,30.14,30.05,3,-165,3,0.00
2013-11-29,44.0,39.2,35.0,-99.9,-99.9,-99.9,0,0,100,30.36,30.22,9,-164,11,0.00
2013-11-30,48.0,39.9,43.0,-99.9,-99.9,-99.9,0,0,100,30.37,30.27,10,4,14,0.00
2013-12-1,55.0,51.8,49.0,-99.9,-99.9,-99.9,0,0,100,30.12,29.93,16,7,21,0.00
2013-12-2,43.0,39.9,37.0,-99.9,-99.9,-99.9,0,0,100,30.07,29.95,12,5,16,0.00
2013-12-3,40.0,22.9,33.0,-99.9,-99.9,-99.9,0,0,100,30.32,30.08,6,2,9,0.00
2013-12-4,35.0,0.5,35.0,-99.9,-99.9,-99.9,0,0,100,30.37,30.31,4,2,6,0.00
2013-12-5,33.0,0.4,33.0,-99.9,-99.9,-99.9,0,0,100,30.34,30.17,7,3,10,0.00
2013-12-6,28.0,0.3,28.0,-99.9,-99.9,-99.9,0,0,100,30.17,30.04,13,7,19,0.00
2013-12-7,-200.0,0.0,200.0,-99.9,-99.9,-99.9,0,0,100,30.46,30.16,5,2,8,0.00
2013-12-8,-200.0,0.0,200.0,-99.9,-99.9,-99.9,0,0,100,30.62,30.46,7,3,9,0.00
2013-12-12,40.0,11.2,32.0,-99.9,-99.9,-99.9,0,0,100,30.21,30.13,11,3,18,0.00
2013-12-13,45.0,43.3,42.0,-99.9,-99.9,-99.9,0,0,100,30.44,30.21,5,-165,8,0.00
2013-12-14,42.0,30.5,40.0,-99.9,-99.9,-99.9,0,0,100,30.44,30.38,6,3,9,0.00
2013-12-15,44.0,42.8,41.0,-99.9,-99.9,-99.9,0,0,100,30.45,30.44,5,-247,7,0.00
2013-12-16,43.0,42.1,41.0,-99.9,-99.9,-99.9,0,0,100,30.49,30.28,7,-248,8,0.00
2013-12-17,41.0,38.0,37.0,-99.9,-99.9,-99.9,0,0,100,30.27,30.19,9,5,12,0.00
2013-12-18,43.0,39.9,38.0,-99.9,-99.9,-99.9,0,0,100,30.19,30.08,9,3,12,0.00
2013-12-30,42.0,40.0,38.0,-99.9,-99.9,-99.9,0,0,100,30.28,30.20,8,4,10,0.00
2013-12-31,45.0,42.2,39.0,-99.9,-99.9,-99.9,0,0,100,30.37,30.25,3,2,5,0.00
2014-1-1,44.0,42.4,40.0,-99.9,-99.9,-99.9,0,0,100,30.39,30.28,4,-271,5,0.00
2014-1-2,44.0,41.9,40.0,-99.9,-99.9,-99.9,0,0,100,30.27,30.03,5,4,8,0.00